Location: Mountain Grove
(34.0887°N, 86.6172°W)
Time: 22:05:12
(UTC+00:00)

Cosmos 1725 Rocket - Pass Details

Date: 14 July 2020
Orbit: 963 x 989 km, 82.9° (Epoch: 08 August)

Event Time Altitude Azimuth Distance (km) Brightness Sun altitude
Exits shadow 08:19:51 40° 266° (W) 1,399 4.5 -24.2°
Maximum altitude 08:20:29 41° 281° (W) 1,377 4.5 -24.1°
Drops below altitude 10° 08:26:19 10° 350° (N) 2,725 6.9 -23.4°
Sets 08:29:01 0° 358° (N) 3,680 7.7 -23.0°
